Weather reports worldwide

Advertisment
Saelices el Chico, Spain (8195): temperature & dewpoint: 14.10.2019 22:00:00 - 20.10.2019 22:00:00 (CEST)Saelices el Chico, Spain (8195): wind speed & gusts: 14.10.2019 22:00:00 - 20.10.2019 22:00:00 (CEST)Saelices el Chico, Spain (8195): wind direction: 14.10.2019 22:00:00 - 20.10.2019 22:00:00 (CEST)Saelices el Chico, Spain (8195): reduced air pressure: 14.10.2019 22:00:00 - 20.10.2019 22:00:00 (CEST)Saelices el Chico, Spain (8195): visibility: 14.10.2019 22:00:00 - 20.10.2019 22:00:00 (CEST)Saelices el Chico, Spain (8195): sunshine duration: 14.10.2019 22:00:00 - 20.10.2019 22:00:00 (CEST)Saelices el Chico, Spain (8195): precipitation: 14.10.2019 22:00:00 - 20.10.2019 22:00:00 (CEST)
Date & Time tt [°C] td [°C] ff [km/h] ff [kn] fx [km/h] fx [kn] dd ppp [hPa] vv [km] sd [min] rr [mm]
20.10.2019 22:00:00 - - - - - - - - - - -
20.10.2019 21:00:00 - - - - - - - - - - -
20.10.2019 20:00:00 - - - - - - - - - - -
20.10.2019 19:00:00 - - - - - - - - - - -
20.10.2019 18:00:00 11,6 6,1 7 4 26 14 WSW 1013,0 20 22 0,6
20.10.2019 17:00:00 12,2 5,0 8 5 25 13 NNW 1012,4 20 17 0,0
20.10.2019 16:00:00 13,1 4,8 11 6 23 12 NW 1011,8 20 27 0,0
20.10.2019 15:00:00 12,7 5,1 7 4 20 11 NW 1011,9 20 23 0,0
20.10.2019 14:00:00 11,4 5,8 9 5 28 15 N 1012,4 20 23 -
20.10.2019 13:00:00 9,1 6,7 10 6 27 15 NNW 1012,9 20 0 0,2
20.10.2019 12:00:00 8,2 6,1 13 7 28 15 NW 1012,9 20 0 0,8
20.10.2019 11:00:00 7,9 6,1 14 7 30 16 NW 1012,3 18 0 0,6
20.10.2019 10:00:00 7,7 5,3 13 7 27 14 NW 1011,4 13 0 0,0
20.10.2019 09:00:00 7,6 4,3 15 8 29 16 NW 1010,2 20 0 0,0
20.10.2019 08:00:00 7,5 4,3 13 7 27 14 WNW 1009,3 20 0 -
20.10.2019 07:00:00 7,4 4,6 11 6 26 14 W 1008,8 20 0 0,0
20.10.2019 06:00:00 7,3 4,8 10 5 30 16 WNW 1008,2 20 0 0,0
20.10.2019 05:00:00 8,2 5,8 16 8 30 16 WNW 1007,4 20 0 0,0
20.10.2019 04:00:00 8,6 6,8 13 7 22 12 W 1007,0 20 0 0,4
20.10.2019 03:00:00 8,6 6,5 9 5 19 10 SW 1006,8 20 0 0,0
20.10.2019 02:00:00 8,9 5,9 4 2 16 9 W 1006,6 20 0 -
20.10.2019 01:00:00 8,7 6,2 6 4 13 7 WSW 1006,3 20 0 0,0
20.10.2019 00:00:00 8,9 6,4 9 5 25 13 WSW 1006,2 20 0 0,0
19.10.2019 23:00:00 9,4 6,8 12 6 23 13 W 1005,5 20 0 0,0
19.10.2019 22:00:00 10,1 7,6 14 7 36 20 W 1004,9 20 0 0,0
19.10.2019 21:00:00 11,2 8,4 19 10 37 20 W 1004,2 20 0 0,0
19.10.2019 20:00:00 12,3 10,5 15 8 41 22 SW 1002,5 20 17 -
19.10.2019 19:00:00 11,4 9,3 22 12 46 25 SSW 1002,7 7 0 6,6
19.10.2019 18:00:00 12,3 10,4 9 5 43 23 S 1002,5 8 0 3,8
19.10.2019 17:00:00 12,9 10,0 27 15 49 27 SSE 1002,8 7 1 0,4
19.10.2019 16:00:00 14,0 10,0 27 15 50 27 S 1003,2 20 17 0,2
19.10.2019 15:00:00 12,8 9,8 25 13 56 31 SSE 1004,4 20 0 0,4
19.10.2019 14:00:00 13,7 8,8 27 14 53 29 SSW 1006,7 20 0 -
19.10.2019 13:00:00 13,6 8,7 22 12 43 23 S 1006,9 20 0 0,0
19.10.2019 12:00:00 12,7 8,8 19 11 38 20 S 1008,4 20 0 0,0
19.10.2019 11:00:00 11,8 8,7 18 10 34 18 S 1009,3 20 0 0,0
19.10.2019 10:00:00 11,4 8,7 12 6 30 16 SSE 1009,6 20 0 0,0
19.10.2019 09:00:00 11,3 8,1 14 7 29 15 S 1009,9 20 0 0,0
19.10.2019 08:00:00 11,4 7,8 12 6 28 15 S 1010,4 20 0 -
19.10.2019 07:00:00 11,4 7,6 11 6 27 15 S 1010,7 20 0 0,0
19.10.2019 06:00:00 11,5 7,4 11 6 23 13 S 1011,1 20 0 0,0
19.10.2019 05:00:00 11,4 7,7 6 4 23 13 S 1011,8 20 0 0,0
19.10.2019 04:00:00 11,6 7,8 13 7 23 12 S 1012,3 20 0 0,0
19.10.2019 03:00:00 11,5 7,8 8 4 16 9 SW 1013,5 20 0 0,0
19.10.2019 02:00:00 11,7 7,8 9 5 15 8 SW 1013,4 20 0 -
19.10.2019 01:00:00 11,9 8,0 6 3 13 7 SW 1013,9 20 0 0,0
19.10.2019 00:00:00 11,9 7,6 7 4 19 11 WSW 1014,5 20 0 0,0
18.10.2019 23:00:00 11,7 7,6 6 3 13 7 SW 1014,9 20 0 0,0
18.10.2019 22:00:00 12,8 7,7 5 3 10 6 SW 1014,4 20 0 0,0
18.10.2019 21:00:00 13,8 7,3 8 5 14 8 WNW 1014,6 20 0 0,0
18.10.2019 20:00:00 14,1 7,6 9 5 24 13 W 1014,5 20 0 -
18.10.2019 19:00:00 15,3 7,3 15 8 29 16 WNW 1014,2 20 18 0,0
18.10.2019 18:00:00 16,8 7,7 15 8 29 16 NW 1013,8 20 59 0,0
18.10.2019 17:00:00 17,1 7,7 11 6 21 11 W 1014,1 20 31 0,0
18.10.2019 16:00:00 17,2 8,1 8 5 20 11 WNW 1014,4 15 32 0,0
18.10.2019 15:00:00 16,8 8,3 3 2 13 7 SSW 1015,2 20 20 0,0
18.10.2019 14:00:00 15,3 8,8 4 2 12 6 NW 1016,9 20 2 -
18.10.2019 13:00:00 14,2 8,1 5 3 11 6 W 1017,7 20 0 0,0
18.10.2019 12:00:00 13,0 8,5 5 3 17 9 NW 1018,3 20 0 0,0
18.10.2019 11:00:00 12,4 9,6 5 3 18 10 NW 1018,4 20 0 0,0
18.10.2019 10:00:00 11,9 9,8 8 4 24 13 NW 1018,2 20 0 0,0
18.10.2019 09:00:00 12,0 10,3 10 6 22 12 WNW 1017,5 20 0 0,0
18.10.2019 08:00:00 12,4 10,6 11 6 25 14 WNW 1017,5 20 0 -
18.10.2019 07:00:00 12,9 11,1 14 7 27 14 WNW 1017,1 20 0 0,0
18.10.2019 06:00:00 14,0 12,2 9 5 25 13 WNW 1016,4 20 0 0,2
18.10.2019 05:00:00 15,0 13,4 7 4 22 12 WNW 1015,7 20 0 0,0
18.10.2019 04:00:00 15,8 14,3 7 4 12 6 W 1015,6 3,9 0 0,6
18.10.2019 03:00:00 15,8 14,1 5 3 15 8 SSW 1015,6 3,0 0 0,6
18.10.2019 02:00:00 15,7 14,0 6 3 14 8 S 1015,7 20 0 -
18.10.2019 01:00:00 15,7 13,9 9 5 16 9 S 1016,3 20 0 0,2
18.10.2019 00:00:00 15,7 13,9 7 4 16 9 SSE 1016,5 20 0 0,0
17.10.2019 23:00:00 15,6 13,9 9 5 18 10 S 1016,4 20 0 0,0
17.10.2019 22:00:00 15,4 13,8 5 3 21 11 S 1016,5 20 0 0,0
17.10.2019 21:00:00 15,3 13,5 13 7 28 15 SSW 1016,6 20 0 1,0
17.10.2019 20:00:00 15,7 13,2 11 6 32 18 S 1016,0 17 0 -
17.10.2019 19:00:00 16,4 12,5 13 7 32 17 S 1015,5 20 1 0,0
17.10.2019 18:00:00 16,8 13,0 14 8 29 16 SSW 1015,5 20 0 0,2
17.10.2019 17:00:00 16,8 13,6 11 6 37 20 SSW 1015,8 8 0 1,0
17.10.2019 16:00:00 18,4 12,1 19 10 32 17 SSW 1015,5 20 0 0,0
17.10.2019 15:00:00 18,7 12,2 18 10 34 18 SSW 1015,7 20 6 0,0
17.10.2019 14:00:00 18,3 12,3 17 9 29 16 SSW 1016,2 20 6 -
17.10.2019 13:00:00 17,5 12,2 16 9 31 17 SW 1016,8 20 3 0,0
17.10.2019 12:00:00 17,2 12,3 11 6 27 15 SW 1016,8 20 19 0,0
17.10.2019 11:00:00 15,1 11,4 9 5 20 11 SSW 1017,5 20 16 0,0
17.10.2019 10:00:00 13,9 11,4 7 4 16 9 S 1017,5 20 5 0,0
17.10.2019 09:00:00 13,2 11,1 9 5 23 12 S 1017,0 20 0 0,0
17.10.2019 08:00:00 13,2 11,1 10 5 18 10 SSW 1016,5 20 0 -
17.10.2019 07:00:00 12,9 11,0 7 4 17 9 S 1016,3 20 0 0,0
17.10.2019 06:00:00 12,7 10,6 8 4 23 12 SSE 1016,4 20 0 0,4
17.10.2019 05:00:00 12,9 10,3 11 6 29 15 S 1016,4 20 0 0,2
17.10.2019 04:00:00 13,7 9,2 13 7 28 15 S 1016,7 20 0 0,0
17.10.2019 03:00:00 13,7 8,8 13 7 23 12 S 1016,8 20 0 0,0
17.10.2019 02:00:00 13,9 8,8 14 8 32 18 S 1016,9 20 0 -
17.10.2019 01:00:00 14,2 8,4 14 8 27 14 S 1017,5 20 0 0,0
17.10.2019 00:00:00 14,2 8,1 10 5 22 12 SSE 1017,7 20 0 0,0
16.10.2019 23:00:00 14,3 8,0 12 7 28 15 S 1017,6 20 0 0,0
16.10.2019 22:00:00 14,4 7,8 12 7 24 13 S 1017,8 20 0 0,0
16.10.2019 21:00:00 14,5 7,7 15 8 30 16 SSW 1017,7 20 0 0,0
16.10.2019 20:00:00 14,7 7,7 14 7 29 16 SSW 1017,6 20 0 -
16.10.2019 19:00:00 15,1 7,4 14 8 33 18 SSW 1017,3 20 0 0,0
16.10.2019 18:00:00 15,3 7,3 19 10 36 19 SW 1017,5 20 0 0,0
16.10.2019 17:00:00 15,8 7,0 20 11 36 19 SSW 1017,1 20 32 0,0
16.10.2019 16:00:00 16,7 6,8 19 10 37 20 SSW 1017,0 20 57 0,0
16.10.2019 15:00:00 17,1 7,1 22 12 40 21 S 1017,6 20 56 0,0
16.10.2019 14:00:00 15,8 7,3 21 11 41 22 SSW 1018,9 20 44 -
16.10.2019 13:00:00 15,0 6,8 17 9 37 20 SSW 1019,9 20 51 0,0
16.10.2019 12:00:00 14,2 7,3 20 11 35 19 SSW 1019,7 20 60 0,0
16.10.2019 11:00:00 13,0 7,8 9 5 19 11 S 1020,4 20 60 0,0
16.10.2019 10:00:00 8,6 6,4 8 4 11 6 E 1021,7 20 20 0,0
16.10.2019 09:00:00 6,2 4,3 8 5 11 6 ESE 1022,1 20 4 0,0
16.10.2019 08:00:00 6,8 4,8 3 1 8 5 ESE 1022,0 20 0 -
16.10.2019 07:00:00 7,5 5,0 5 3 14 7 S 1021,6 20 0 0,0
16.10.2019 06:00:00 7,6 5,1 4 2 14 8 S 1021,2 20 0 0,0
16.10.2019 05:00:00 8,1 5,6 7 4 11 6 S 1021,4 20 0 0,0
16.10.2019 04:00:00 8,6 6,1 4 2 11 6 ENE 1021,8 20 0 0,0
16.10.2019 03:00:00 9,5 6,1 7 4 10 6 SSE 1021,8 20 0 0,0
16.10.2019 02:00:00 9,6 6,7 3 1 8 5 ESE 1022,1 20 0 -
16.10.2019 01:00:00 9,8 6,5 4 2 7 4 ESE 1022,1 20 0 0,0
16.10.2019 00:00:00 10,3 6,2 4 2 7 4 SSW 1021,8 20 0 0,0
15.10.2019 23:00:00 10,8 6,5 5 3 7 4 ESE 1021,7 20 0 0,0
15.10.2019 22:00:00 11,5 6,4 3 2 16 8 WNW 1021,3 20 0 0,0
15.10.2019 21:00:00 12,5 6,2 9 5 17 9 SSW 1021,1 20 0 0,0
15.10.2019 20:00:00 13,5 5,9 6 3 12 7 SSW 1020,5 20 2 -
15.10.2019 19:00:00 14,6 5,1 8 5 27 15 SW 1020,0 20 24 0,0
15.10.2019 18:00:00 15,9 4,6 10 6 24 13 SSW 1019,5 20 18 0,0
15.10.2019 17:00:00 14,9 3,4 9 5 24 13 SW 1020,0 20 0 0,0
15.10.2019 16:00:00 15,7 3,2 12 6 25 13 SW 1020,0 20 39 0,0
15.10.2019 15:00:00 14,4 4,3 5 3 19 11 NW 1020,6 20 9 0,0
15.10.2019 14:00:00 15,4 5,0 9 5 20 11 SW 1020,8 20 54 -
15.10.2019 13:00:00 13,5 5,6 6 3 15 8 WSW 1021,7 20 48 0,0
15.10.2019 12:00:00 12,4 5,9 6 4 14 8 S 1022,5 20 60 0,0
15.10.2019 11:00:00 9,4 5,1 5 3 11 6 ESE 1023,4 20 60 0,0
15.10.2019 10:00:00 6,9 4,5 7 4 11 6 ESE 1023,4 20 60 0,0
15.10.2019 09:00:00 4,4 2,9 8 4 10 6 E 1023,6 20 7 0,0
15.10.2019 08:00:00 4,4 2,9 5 3 9 5 E 1023,7 20 0 -
15.10.2019 07:00:00 4,4 2,9 6 4 9 5 E 1023,5 20 0 0,0
15.10.2019 06:00:00 4,8 3,2 6 4 9 5 ESE 1023,2 19 0 0,0
15.10.2019 05:00:00 5,4 3,6 4 2 9 5 E 1022,5 20 0 0,0
15.10.2019 04:00:00 5,1 3,0 6 3 14 7 SE 1022,7 20 0 0,0
15.10.2019 03:00:00 6,4 3,9 4 2 13 7 SW 1022,1 20 0 0,0
15.10.2019 02:00:00 6,8 3,6 6 3 19 10 NNW 1022,1 20 0 -
15.10.2019 01:00:00 6,7 3,4 2 1 13 7 S 1022,1 20 0 0,0
15.10.2019 00:00:00 7,0 3,4 2 1 10 6 NW 1021,4 20 0 0,0
14.10.2019 23:00:00 8,0 3,4 9 5 18 10 WSW 1020,5 20 0 0,0
14.10.2019 22:00:00 8,5 3,8 12 6 18 10 W 1019,5 20 0 0,0

tt = temperature
td = dewpoint
ff = wind speed
fx = gusts
dd = wind direction
ppp = reduced air pressure
vv = visibility
sd = sunshine duration
rr = precipitation

Next stations